Theta_e
311 314 314 312 312 313 313 313 314 315 315 316 316 316 318 319 316 315 316 313 313 315 315 316 316 315 316 316 315 314 313 314 314 314 315 315 315 315 315 315 316 316 316 316 315 314 314 314 314 315 315 315 315 314 314 314 314 314 314 314 314 314 314 314 314 315 315 315 316 316 316 316 315 315 315 314 314 315 315 315 315 316 318 321 321 318
312 314 314 312 312 313 313 313 314 315 315 315 316 315 316 318 316 314 315 314 313 315 316 316 316 315 316 317 316 314 313 314 314 314 314 315 315 315 315 315 316 316 316 316 315 315 314 314 314 314 315 315 315 315 314 314 315 315 314 314 315 315 314 315 314 315 315 315 315 316 316 316 316 316 316 315 315 315 316 316 316 316 317 320 320 320
313 312 313 312 313 313 314 314 313 315 315 316 317 316 317 318 316 314 314 313 313 314 316 317 316 316 316 317 316 314 314 314 315 315 315 315 315 315 315 315 316 316 316 316 316 316 315 314 314 314 314 314 315 315 315 315 315 315 314 314 314 314 315 315 315 315 315 315 315 316 316 317 318 318 317 316 316 317 318 318 318 317 317 318 319 321
313 313 312 312 313 313 314 314 314 315 315 316 317 316 317 318 317 316 314 314 313 313 315 317 317 317 316 317 316 315 315 316 315 316 315 315 315 315 315 316 316 316 316 317 316 316 315 315 315 315 314 314 314 315 315 315 315 314 314 314 314 314 314 314 315 315 314 315 316 317 318 319 319 320 318 317 316 316 318 318 318 318 318 317 317 318
314 312 311 312 314 314 313 314 315 315 314 318 320 318 319 319 319 318 315 313 313 313 315 315 316 318 316 316 316 315 315 315 316 317 316 316 315 315 316 316 317 317 316 317 317 316 315 315 315 315 314 314 314 314 314 315 315 315 314 314 314 314 314 314 314 314 314 315 316 317 319 320 320 319 318 317 315 315 316 316 317 318 317 316 315 316
314 311 310 314 314 315 315 314 316 317 314 316 321 321 318 318 319 317 315 314 314 315 317 314 315 320 320 316 316 316 317 317 316 317 317 317 316 315 317 317 318 318 318 318 317 316 316 315 315 315 315 315 314 314 314 314 314 314 314 314 314 314 314 314 314 314 314 315 315 316 316 318 318 317 316 316 316 316 316 316 316 317 316 315 315 318
313 309 311 317 316 317 318 315 317 319 314 314 320 322 318 319 321 317 317 319 317 317 317 314 316 320 320 317 316 318 319 318 317 316 315 316 317 316 316 317 317 317 318 317 317 316 316 315 315 315 315 315 315 314 314 314 314 314 314 314 314 314 314 314 314 314 314 314 314 315 316 316 315 315 315 315 315 316 316 316 316 316 315 315 315 317
312 310 314 317 317 319 318 315 317 317 314 317 323 324 320 321 323 321 319 320 319 318 316 315 316 317 318 319 318 319 318 317 318 318 316 315 315 316 316 315 315 315 316 316 315 315 315 315 314 314 315 315 315 315 314 314 314 315 315 314 314 314 314 314 314 314 314 314 314 315 315 315 314 314 314 314 314 315 315 315 315 315 315 315 315 316
313 314 316 317 318 318 317 318 321 317 315 320 324 323 321 322 323 323 321 319 318 318 318 317 316 316 319 320 318 318 317 316 317 318 316 314 314 315 315 315 315 314 315 314 314 314 314 314 314 314 314 314 314 314 314 314 314 314 314 315 315 314 314 313 313 313 313 313 313 314 314 314 314 314 314 314 314 315 314 314 314 314 315 315 315 316
314 313 313 317 318 317 317 319 323 323 318 319 321 322 324 324 323 321 321 321 317 318 322 321 317 316 319 322 317 316 317 317 317 317 316 314 315 315 315 315 315 314 314 313 313 313 313 313 313 313 314 314 314 314 314 314 314 314 314 314 314 313 313 313 312 312 312 312 312 313 313 313 313 313 313 314 314 314 314 314 315 315 315 315 315 315
311 309 311 315 315 314 314 314 318 321 318 317 320 322 322 322 321 319 320 320 317 320 323 320 318 315 318 324 320 316 317 318 318 319 318 316 315 316 315 315 314 313 313 313 313 313 313 313 312 313 313 313 313 313 313 313 313 313 313 313 313 313 313 312 312 312 311 312 312 312 313 313 314 314 314 314 314 314 315 315 315 315 315 315 315 315
312 311 312 313 310 310 314 314 315 316 316 318 322 321 319 318 318 317 317 317 318 322 318 316 319 317 317 323 320 315 317 317 318 320 319 317 315 315 314 314 313 314 313 313 313 313 312 313 312 312 312 312 312 312 312 312 312 312 312 313 313 312 313 312 312 312 311 312 312 312 313 314 314 314 314 315 315 315 315 315 315 315 315 315 315 314
316 315 313 313 310 311 316 317 315 315 317 320 321 318 319 319 317 317 318 318 319 319 313 312 317 317 316 317 315 314 315 315 317 317 317 316 314 314 314 313 313 314 314 313 312 312 312 312 312 312 312 312 312 312 312 312 313 313 313 313 313 313 312 312 312 312 312 312 313 313 314 315 315 315 315 315 315 315 315 315 315 315 315 315 315 315
317 316 314 315 313 311 315 316 315 315 316 319 318 317 321 320 316 317 319 318 317 316 313 313 315 317 317 315 315 316 313 314 315 315 316 315 314 314 313 312 313 314 314 313 312 312 311 311 311 311 311 311 312 313 313 313 313 313 313 313 313 312 312 312 313 313 313 314 315 315 315 315 315 315 316 315 315 316 315 316 315 315 316 315 315 315
317 317 315 316 314 313 315 316 317 317 316 318 319 319 320 319 318 318 318 320 321 317 312 312 315 319 318 316 316 314 311 312 313 314 315 314 314 314 311 311 313 314 314 313 313 312 312 312 312 312 312 313 314 314 314 314 314 313 313 313 313 314 314 314 315 315 315 315 315 316 315 315 315 315 315 315 316 315 315 316 315 315 315 315 315 315
315 317 316 314 313 314 315 316 317 317 316 317 319 319 320 320 322 320 317 319 322 319 316 314 318 320 318 317 317 313 312 312 311 312 313 313 313 312 311 311 312 314 314 314 314 314 314 314 314 314 314 314 314 314 314 314 314 314 314 315 315 315 315 315 315 315 315 315 315 315 315 315 315 315 315 315 315 315 315 315 315 315 315 315 315 315
314 316 316 314 313 313 312 312 314 315 316 318 318 319 319 320 323 322 316 314 316 319 319 316 318 318 315 316 317 315 315 313 312 312 311 311 312 311 312 313 313 313 314 314 315 314 315 315 315 315 315 315 315 315 315 315 315 315 315 315 315 315 315 315 315 315 315 315 315 315 315 315 315 315 315 315 315 315 315 315 315 315 315 315 315 315
317 315 314 316 317 313 308 310 312 311 314 319 320 319 316 316 319 318 315 315 315 315 316 316 316 316 314 315 315 314 315 315 314 312 310 312 312 312 313 313 312 314 313 314 315 314 315 315 315 315 315 315 316 315 316 315 315 315 315 315 315 315 315 315 315 315 315 315 315 314 314 314 315 315 315 315 315 315 315 315 315 315 315 315 315 315
319 316 313 314 316 313 309 312 314 311 311 315 316 316 315 316 317 315 313 317 318 315 315 316 315 315 316 315 315 315 315 315 314 312 312 314 313 312 314 313 312 313 313 314 315 314 315 315 315 315 315 315 315 315 315 315 315 315 315 315 315 315 315 315 314 314 314 314 314 314 315 315 315 315 315 315 315 315 315 315 315 315 315 315 314 314
317 318 317 313 313 314 313 314 315 314 312 312 312 314 315 316 317 317 315 317 320 317 315 316 315 320 324 319 317 317 316 315 313 313 314 313 313 313 314 313 312 313 314 313 314 315 315 315 315 315 315 315 315 315 315 315 315 315 315 315 315 314 314 314 314 314 314 314 315 315 315 315 315 315 315 315 315 315 315 315 314 314 314 314 314 314
315 319 321 314 312 314 315 315 315 316 314 312 313 313 314 315 314 317 317 317 318 317 316 315 316 325 325 316 316 316 316 317 314 314 314 311 312 313 313 313 312 312 313 313 314 315 315 315 315 314 315 315 314 315 315 315 315 315 314 314 314 314 314 314 314 314 315 314 315 315 315 314 314 315 314 314 314 314 314 314 314 314 314 314 314 313
315 317 319 314 313 314 317 316 315 317 317 315 314 313 314 315 315 316 317 318 317 315 318 316 318 328 323 314 316 315 315 318 314 313 314 312 313 314 313 313 312 312 313 313 314 315 314 315 315 314 315 315 315 315 315 315 314 314 314 314 314 314 314 314 314 314 314 314 314 314 314 314 314 314 314 314 314 314 313 314 314 313 313 313 312 312
318 320 318 315 315 314 315 313 310 313 318 317 316 316 315 315 315 316 318 321 318 313 315 315 318 330 325 313 314 313 311 312 310 312 314 313 314 315 313 313 312 311 313 313 313 314 314 315 314 315 315 315 315 315 314 314 314 314 314 313 314 314 314 314 314 314 314 314 314 314 314 314 314 314 314 313 313 313 313 312 312 312 311 311 311 311
316 320 319 316 315 313 313 313 310 312 316 317 316 317 317 315 315 316 319 321 319 316 317 314 315 324 323 312 309 309 308 308 307 310 313 312 313 314 313 312 311 311 312 313 314 314 314 315 314 315 315 315 315 314 314 314 314 313 314 313 314 314 314 314 314 314 314 314 314 314 314 314 314 313 313 312 312 312 311 311 311 311 311 310 310 310
314 318 319 317 317 315 315 315 314 314 314 316 317 315 316 318 317 316 317 316 317 321 322 317 316 322 323 316 312 310 310 309 307 308 310 311 312 312 313 313 312 311 312 312 313 314 314 315 315 315 315 314 314 314 314 314 313 313 313 313 313 313 314 314 314 314 314 314 314 314 314 313 313 312 312 311 311 311 311 311 310 310 310 310 310 310
316 318 318 317 317 316 316 315 315 316 314 315 316 315 315 319 318 316 316 315 317 322 320 316 319 322 317 314 314 314 313 312 310 308 308 311 311 311 312 313 312 312 312 312 313 314 314 315 315 315 314 314 314 314 314 313 313 313 313 313 313 313 314 314 314 314 314 314 314 313 313 313 312 311 311 311 311 310 310 310 310 310 310 310 310 310
317 318 315 315 315 314 315 316 317 318 316 315 316 316 316 318 318 316 316 316 318 321 320 318 319 319 315 313 314 314 314 314 312 309 308 310 312 311 311 312 312 312 312 313 313 314 314 315 315 315 314 314 314 314 313 313 313 313 313 313 313 313 314 314 314 314 314 313 313 313 312 312 311 311 311 310 310 310 310 310 310 310 310 310 310 309
317 317 315 315 315 314 315 316 317 317 316 315 316 316 315 316 318 318 317 316 316 318 318 318 318 317 315 315 315 315 315 314 312 309 308 310 312 313 312 312 312 313 313 313 313 314 314 315 315 314 314 314 314 313 313 313 313 313 312 313 314 314 314 314 314 313 313 313 313 312 312 311 311 310 310 310 310 310 310 310 310 310 309 309 308 307
316 315 316 317 315 315 319 321 321 318 315 315 315 315 315 316 317 317 316 315 316 317 315 316 318 318 315 315 317 316 314 312 311 310 309 310 312 314 314 313 313 313 313 313 314 314 314 315 315 314 314 314 313 313 313 312 312 312 313 313 313 313 313 313 313 313 313 312 312 311 311 310 310 310 310 310 310 310 310 309 309 308 307 306 305 303
314 315 316 316 315 316 321 322 322 319 317 316 316 315 315 315 315 316 315 314 315 316 315 315 318 319 317 317 317 314 312 311 311 311 310 310 312 314 314 314 313 313 313 313 314 314 314 314 314 314 314 314 313 313 313 312 312 312 313 313 313 313 313 313 313 313 312 311 311 311 310 310 310 310 310 310 309 309 308 307 306 304 303 302 301 301
314 316 316 316 315 316 318 318 318 320 319 318 318 318 317 316 316 315 314 314 314 315 315 315 317 319 317 316 314 313 312 312 311 311 312 311 312 313 314 314 313 312 313 313 314 314 314 314 314 314 314 313 313 313 312 312 312 312 313 313 313 313 313 313 313 312 311 311 310 310 309 309 309 309 309 308 308 306 304 303 302 301 300 300 300 300
314 316 316 315 315 316 318 317 316 318 317 315 318 321 320 318 316 315 314 314 314 314 315 315 315 315 315 314 314 313 311 310 310 311 311 311 312 313 313 314 313 313 313 313 313 314 314 314 314 314 314 313 313 312 312 312 312 312 312 312 312 312 313 313 312 311 311 310 310 309 309 309 309 309 308 306 304 302 301 300 300 300 300 300 300 300
315 316 317 316 315 316 316 314 315 316 314 313 315 319 320 317 315 315 314 314 314 314 314 315 314 313 314 315 316 315 311 309 310 310 311 312 312 312 313 313 313 313 313 313 313 313 314 314 314 314 313 313 312 312 312 312 312 312 312 312 312 312 312 312 312 311 310 309 309 309 309 308 307 306 304 302 301 300 300 300 300 300 300 300 300 300
314 316 316 315 315 317 314 313 315 315 312 312 314 316 318 317 316 315 315 314 314 313 313 313 312 313 315 316 316 316 313 311 311 311 311 312 311 312 313 313 313 313 313 313 313 312 313 313 313 313 313 312 312 311 311 311 312 312 312 311 312 312 312 311 310 309 309 309 308 308 307 306 304 302 301 299 299 299 300 300 300 300 300 300 299 298
313 313 314 313 314 315 313 312 313 313 312 314 317 318 316 315 315 316 315 314 313 313 313 313 313 314 314 314 314 314 313 312 312 311 311 311 311 311 312 312 312 313 313 313 313 313 313 313 313 313 312 312 311 311 311 311 311 311 311 311 311 311 311 310 309 308 308 308 307 306 304 303 301 299 299 299 299 299 300 300 300 300 299 299 298 297
313 312 313 314 314 314 313 312 312 313 314 316 319 318 315 315 316 316 315 314 313 313 314 314 313 313 312 312 313 314 313 312 312 311 311 312 311 312 312 312 312 312 312 312 313 313 313 313 313 312 311 311 311 311 311 311 310 311 311 311 311 310 309 308 308 307 307 306 305 303 301 300 299 299 299 299 299 300 300 300 300 299 298 297 297 296
312 312 312 314 314 314 314 313 312 313 314 315 317 317 314 315 317 316 315 314 313 313 314 314 313 313 312 312 313 313 312 312 312 312 312 312 311 311 311 311 311 311 311 311 312 312 312 312 312 312 311 310 310 310 310 310 310 310 310 310 310 309 308 307 307 307 305 304 302 300 299 299 299 299 299 300 300 300 300 300 298 297 297 297 296 296
312 313 313 313 314 313 314 313 313 314 314 313 313 315 313 312 314 314 313 314 313 312 312 313 313 313 311 312 312 311 312 314 314 313 312 312 312 312 311 311 311 310 310 310 310 310 310 310 310 310 310 309 309 309 309 309 310 310 309 309 308 307 307 306 306 305 303 300 299 298 298 299 299 299 300 300 300 299 299 297 297 296 296 296 296 296
314 314 314 314 314 314 313 314 314 314 313 313 315 315 312 311 312 312 313 314 312 311 311 312 313 312 311 311 311 310 313 316 314 312 311 312 312 311 311 311 310 310 310 310 310 310 310 309 309 309 309 309 308 308 309 309 309 309 309 308 307 306 306 305 304 301 299 298 298 298 299 299 299 300 300 299 298 298 297 296 296 296 296 296 296 296
313 314 315 314 315 314 313 313 314 313 313 318 322 317 312 311 312 313 315 314 312 310 311 312 311 311 311 311 310 311 314 315 313 311 311 312 311 311 311 310 310 310 310 310 310 310 309 309 309 309 308 308 308 308 309 309 308 308 307 307 306 305 304 303 300 299 298 298 298 298 299 299 299 299 298 297 297 297 297 296 296 296 296 296 295 295
312 313 314 314 314 315 314 313 313 313 316 323 321 313 310 312 314 314 315 314 312 311 311 312 311 311 312 311 310 311 312 312 311 312 312 311 311 311 311 311 311 310 310 309 309 309 309 309 308 308 308 308 308 308 308 308 307 306 306 305 305 304 302 300 298 298 298 298 298 299 299 299 299 298 297 297 297 297 296 296 296 296 295 295 295 295
312 312 313 313 313 313 314 314 313 313 316 319 314 309 310 313 314 314 313 312 312 312 311 312 312 312 312 311 311 311 311 310 311 311 311 311 311 311 311 311 311 310 309 309 309 308 308 308 308 308 308 308 308 307 307 307 306 305 305 304 303 301 299 298 297 297 298 298 299 299 299 298 297 297 297 297 297 296 296 296 295 295 295 295 294 294
312 312 313 312 312 313 313 314 314 314 314 313 311 311 313 315 315 314 312 312 312 313 312 312 312 312 312 311 311 311 311 310 311 310 311 311 311 311 311 310 310 310 310 309 309 308 308 308 308 308 307 307 307 306 306 305 305 304 304 302 300 298 297 297 297 297 298 299 299 298 298 297 297 297 297 297 296 296 295 295 295 294 294 294 294 293
312 313 314 313 312 312 313 313 314 314 312 311 312 314 314 314 313 313 312 312 312 312 312 312 312 312 312 311 311 311 311 310 310 310 310 310 310 310 310 310 310 310 309 309 309 308 308 308 307 307 307 306 305 305 304 304 304 303 302 300 298 297 297 297 297 298 298 298 298 297 297 297 297 297 296 296 296 295 295 295 294 294 294 293 293 293
313 312 313 314 313 312 313 314 314 312 310 311 312 312 312 312 311 312 313 313 312 312 312 312 312 311 312 312 311 311 310 310 310 309 309 309 310 310 310 310 310 310 310 309 309 308 308 307 307 306 306 305 305 304 303 303 302 301 299 298 297 297 297 297 298 298 298 297 297 296 297 297 296 296 296 295 295 295 294 294 294 293 293 293 292 292
312 309 311 315 315 313 313 313 312 309 309 311 312 312 311 312 312 312 312 312 311 312 312 311 311 311 311 311 311 311 310 310 310 309 309 309 309 309 310 310 309 309 309 309 308 308 307 307 306 306 305 305 304 303 302 301 300 298 297 297 297 296 297 297 297 297 297 296 296 296 296 296 296 296 295 295 295 294 294 293 293 292 292 292 291 291
310 308 311 316 316 314 314 314 313 311 310 311 312 311 311 311 311 311 311 312 311 311 311 311 311 311 310 310 310 310 310 310 309 310 309 309 309 309 309 309 309 309 309 308 308 308 307 306 306 305 305 304 304 302 301 300 298 297 296 296 296 297 297 297 297 296 296 296 296 296 296 296 295 295 295 294 294 294 293 293 292 292 291 291 290 290
311 309 313 317 316 314 314 312 310 310 310 311 311 311 310 311 311 310 310 311 310 310 311 310 310 310 310 310 310 309 309 309 309 309 309 309 309 309 309 309 309 308 308 308 308 307 306 306 306 305 304 304 303 302 300 298 297 296 296 296 296 297 297 296 296 296 296 296 296 296 296 295 295 294 294 294 293 293 292 292 292 291 290 290 289 289
309 310 313 316 314 313 312 309 307 309 311 310 310 311 310 311 311 310 310 310 309 309 310 309 309 310 310 310 309 309 309 309 308 308 308 308 308 308 308 308 308 308 307 307 307 307 306 305 305 304 303 303 302 300 299 297 296 296 296 296 297 297 296 296 296 296 297 296 296 296 295 295 294 294 294 293 293 292 292 291 291 290 289 289 288 288
309 311 313 314 313 313 313 310 309 312 313 311 309 310 310 310 310 309 309 309 308 309 309 309 309 309 309 309 309 308 308 308 308 308 307 307 307 307 307 307 307 307 307 307 306 306 305 305 304 304 303 302 300 299 297 296 296 296 296 296 297 296 296 296 296 296 296 296 296 295 295 294 294 294 293 293 292 292 291 291 290 289 289 288 288 287
308 311 311 312 312 311 310 309 309 310 311 309 307 308 308 308 308 308 308 308 309 309 309 309 309 308 308 308 308 308 308 308 307 307 307 307 307 306 306 306 306 306 306 306 306 306 305 304 304 303 301 300 299 297 296 296 296 296 296 296 296 296 296 296 296 296 296 296 295 295 295 294 294 293 292 292 292 291 291 290 289 288 288 288 287 287
Wind_Speed
12 5 4 6 6 8 9 9 9 6 4 5 9 7 6 6 3 2 2 2 2 3 5 7 7 7 8 6 9 16 17 14 15 14 14 15 15 16 17 18 18 18 19 18 18 20 21 21 21 21 21 21 22 22 23 23 23 22 21 22 21 20 20 21 21 21 21 21 20 20 20 20 20 20 20 20 20 20 20 21 22 22 22 22 22 21
10 6 6 8 8 8 9 11 10 5 6 4 7 8 6 5 2 2 2 3 2 1 5 8 7 8 8 6 7 13 15 13 17 17 17 18 17 17 18 19 19 18 17 17 18 20 21 21 21 22 23 23 24 24 24 25 24 23 22 22 22 21 22 22 22 22 22 22 22 21 20 19 19 19 19 19 19 19 19 20 21 22 22 22 22 21
7 6 7 10 10 6 5 11 8 3 4 5 2 6 5 4 4 3 2 3 3 1 2 4 5 8 8 7 8 11 12 15 22 22 21 21 20 20 20 20 21 19 19 19 20 21 21 20 21 22 24 25 25 25 25 25 24 24 23 23 23 23 23 23 23 23 23 23 23 22 21 20 20 19 19 19 19 19 18 19 20 21 22 22 22 21
5 5 7 9 10 6 4 6 6 2 3 4 2 3 4 5 4 1 1 3 2 1 1 1 3 5 6 6 8 16 21 19 21 24 23 24 23 23 22 21 22 22 22 22 21 22 21 20 21 21 23 25 26 27 26 26 26 26 25 24 24 25 24 23 23 23 23 23 23 22 22 21 21 20 21 21 21 21 20 19 19 20 20 20 20 21
5 3 4 5 8 9 4 2 5 3 3 4 3 2 2 5 4 2 4 4 1 1 1 2 4 4 6 7 7 13 20 19 20 22 22 23 24 22 21 21 21 22 23 23 22 22 22 21 21 20 21 24 26 28 28 28 28 27 27 26 25 25 24 24 23 23 24 24 24 24 23 23 23 23 23 23 23 23 23 21 20 20 19 19 20 19
6 3 2 3 6 9 6 3 5 5 3 4 4 3 2 4 7 7 7 5 2 2 3 3 1 6 5 10 10 8 10 13 15 18 19 23 23 23 24 22 21 21 23 23 22 22 22 21 21 20 21 22 25 27 27 27 28 28 27 26 25 24 24 24 24 24 25 26 26 26 26 25 25 24 23 23 23 23 23 22 21 20 19 20 21 19
3 2 1 4 6 8 6 5 5 5 4 4 4 2 1 6 9 9 8 5 3 3 3 3 4 5 4 5 9 7 8 9 10 11 16 21 22 24 27 26 25 25 24 24 23 22 22 22 22 22 22 23 23 24 25 26 26 27 26 26 25 24 25 25 25 26 26 27 27 27 27 26 25 24 23 23 22 22 21 20 20 19 19 20 21 20
2 3 1 2 4 5 5 4 5 7 5 3 3 2 4 9 8 8 8 4 2 2 2 1 2 2 4 5 3 6 8 6 7 8 12 18 21 23 24 25 26 27 27 27 27 26 25 25 24 24 24 24 24 24 25 25 25 26 26 25 24 24 25 26 27 28 28 28 28 27 26 25 24 24 24 23 23 21 19 18 17 18 19 20 21 21
2 5 3 3 4 3 4 2 4 8 5 3 3 3 2 7 7 7 6 3 0 3 1 4 2 1 4 5 2 4 5 5 8 9 11 16 21 20 18 19 21 23 24 26 26 26 26 26 26 26 26 26 26 26 26 26 26 27 27 26 26 27 27 28 29 29 29 29 29 26 24 23 23 23 23 22 21 20 18 17 18 19 19 20 21 20
1 2 2 3 4 3 3 2 2 4 3 4 3 1 4 4 4 4 5 3 2 0 3 6 5 2 4 5 3 2 3 6 9 8 8 14 18 16 16 16 17 19 20 21 22 23 24 25 25 25 26 26 26 27 27 27 28 29 29 29 28 28 29 29 29 29 29 28 26 23 21 21 20 20 19 18 18 18 18 18 17 17 17 18 18 18
1 2 2 1 2 2 3 3 4 1 4 7 4 4 6 5 4 2 1 4 2 2 3 4 4 2 3 5 5 4 4 5 6 4 5 10 14 13 13 13 13 14 15 16 18 19 21 22 22 23 24 25 25 25 26 26 27 28 28 27 27 28 29 29 28 27 26 23 20 18 17 17 16 16 15 15 15 16 16 15 13 13 13 14 15 16
2 2 1 1 1 1 3 2 5 3 5 6 3 4 4 3 4 4 3 3 2 4 3 3 3 1 3 5 3 3 3 2 3 5 6 8 11 12 10 9 10 11 11 13 15 17 19 20 20 20 21 22 22 22 22 21 21 21 21 21 22 23 24 24 22 21 19 16 14 14 13 13 13 13 12 12 11 10 10 9 10 10 10 11 12 13
3 2 1 1 0 3 3 2 4 4 1 1 3 6 4 1 1 0 2 1 3 3 3 3 3 1 5 6 6 5 4 3 3 5 10 11 12 11 9 8 8 8 9 11 13 14 16 16 17 17 18 18 18 18 17 16 16 16 16 16 16 15 15 14 14 14 12 10 10 10 10 10 9 8 7 6 5 4 5 5 6 7 8 9 10 11
1 1 1 2 1 5 4 2 3 1 3 3 5 6 4 4 3 3 3 2 3 2 4 4 2 2 3 6 9 8 6 8 8 10 13 14 13 11 8 6 6 7 8 9 10 11 12 13 13 14 15 16 15 15 15 15 15 15 14 13 12 10 9 9 9 10 9 9 9 8 7 6 5 3 1 0 1 2 4 5 6 7 7 8 10 10
4 2 2 2 1 5 5 2 2 4 4 5 4 5 4 4 4 4 4 3 3 0 2 3 1 3 3 3 5 3 3 8 11 13 14 13 12 10 6 5 6 6 7 7 9 10 11 13 14 15 16 15 15 15 14 14 14 13 13 12 11 11 11 11 11 10 9 9 9 8 7 6 5 4 4 3 3 4 4 5 7 8 9 10 11 12
7 4 1 1 2 2 4 1 1 3 4 4 1 3 3 4 4 3 2 3 5 2 0 2 2 4 4 3 4 5 6 7 10 11 13 12 10 9 6 5 7 7 7 8 9 10 12 14 15 16 16 16 15 15 14 14 14 14 14 14 14 14 13 13 12 11 11 11 10 10 9 8 7 6 5 4 3 4 5 6 8 9 10 12 13 14
6 3 3 3 3 2 0 1 2 1 2 2 2 3 4 2 6 5 1 0 3 1 2 3 3 4 3 4 3 6 5 4 6 8 11 12 11 9 7 6 8 9 9 10 10 12 13 14 15 15 16 16 16 16 16 16 16 16 16 16 16 15 15 14 14 14 14 13 12 11 9 8 6 4 3 3 3 4 5 7 8 10 11 13 14 15
5 2 3 1 1 2 3 2 1 1 2 3 3 4 2 1 3 3 1 1 2 1 2 3 4 4 2 3 1 4 5 6 6 7 9 12 12 11 9 8 10 10 10 11 12 13 14 15 16 17 18 18 18 18 18 18 18 17 16 16 16 17 17 17 17 16 14 12 11 9 7 6 4 3 2 2 3 5 6 8 9 11 12 14 15 16
5 3 2 1 0 1 3 1 2 0 2 3 2 1 2 1 1 1 2 2 2 2 3 3 5 4 4 4 2 5 8 7 7 7 8 10 12 14 12 11 12 12 13 13 14 15 17 17 18 19 19 19 19 19 18 18 18 18 18 19 19 19 19 18 16 14 12 9 8 6 5 4 2 1 1 3 4 6 8 9 11 12 14 15 16 17
5 3 1 2 1 1 2 1 4 3 0 1 2 3 2 1 2 2 3 3 3 3 3 2 2 3 5 6 6 8 9 9 9 8 7 11 15 17 15 14 14 15 15 15 16 18 19 20 20 20 20 19 19 20 20 20 21 21 21 21 20 18 16 14 12 10 9 7 5 4 3 1 1 2 4 5 7 8 10 11 13 14 15 16 16 17
3 3 2 1 2 1 1 2 5 5 4 2 1 1 2 1 1 1 3 2 3 3 3 2 2 5 6 4 4 7 7 6 8 8 8 12 16 18 17 15 15 16 17 17 18 20 21 21 21 20 20 20 21 22 23 23 23 22 21 19 17 15 13 11 10 8 7 5 3 2 1 2 3 5 6 8 9 10 11 12 13 14 15 15 15 15
1 2 4 3 1 2 2 2 1 3 3 3 3 4 5 4 3 1 3 1 2 2 3 3 3 6 5 2 2 4 5 4 5 8 10 13 16 18 18 17 15 17 19 20 20 22 22 21 21 21 21 22 23 24 24 23 22 20 18 16 14 12 10 8 7 6 4 3 1 1 2 4 5 7 8 9 9 10 11 12 13 13 13 13 13 12
3 4 5 3 2 2 1 0 1 1 1 2 2 2 3 4 4 4 4 3 1 1 1 2 1 5 5 2 4 3 5 5 6 8 10 12 15 17 18 18 17 17 20 21 21 22 22 22 22 22 24 25 25 24 23 22 20 17 15 13 11 10 8 6 4 3 2 1 1 2 4 5 6 7 8 8 9 9 9 10 10 10 10 10 10 10
3 4 4 3 1 2 2 0 1 1 0 1 3 3 3 5 6 5 4 3 3 2 2 2 3 5 5 2 3 2 2 3 4 7 9 10 13 16 18 19 19 19 20 22 23 23 24 23 24 25 26 26 25 24 22 20 17 15 13 11 9 8 6 4 3 2 1 1 3 4 5 6 7 7 8 8 7 7 7 7 7 7 7 7 8 9
4 2 4 4 3 1 1 1 1 2 3 2 4 5 4 3 5 3 1 1 1 4 6 5 4 6 5 3 2 2 2 3 3 5 8 9 11 15 17 19 20 20 21 23 24 25 25 25 26 27 27 26 25 23 20 18 16 14 12 10 8 6 5 4 3 2 2 3 4 5 6 7 7 7 7 6 5 4 4 4 5 5 6 7 8 9
7 3 5 5 5 5 5 5 4 3 2 1 2 4 5 4 6 5 2 2 3 5 6 5 5 6 4 3 2 3 4 4 4 5 8 9 10 13 17 19 20 21 22 23 25 26 26 27 28 29 28 26 24 21 19 17 15 12 10 9 7 6 5 4 3 3 4 4 5 6 7 7 6 5 4 3 3 2 2 3 4 5 6 7 8 9
4 2 7 8 9 10 8 7 6 6 5 5 7 9 9 9 9 7 4 5 6 4 4 6 7 7 6 3 4 5 5 6 5 7 10 11 11 13 17 19 20 22 23 24 25 27 28 29 30 29 28 25 23 20 18 15 13 11 9 8 7 6 5 5 4 4 5 6 7 7 6 5 4 3 3 3 2 2 2 3 4 5 6 7 8 9
3 3 8 10 12 11 9 8 9 10 11 13 14 14 14 12 11 9 7 9 9 6 6 9 8 9 8 5 6 7 6 5 6 10 14 14 15 15 17 19 20 22 23 25 26 28 30 31 31 30 27 24 22 19 17 14 12 10 9 8 7 7 6 5 6 6 7 7 7 7 6 5 4 4 4 3 2 2 2 3 4 5 6 6 7 8
3 6 7 8 11 9 6 6 9 12 12 12 14 15 15 13 12 11 13 14 9 7 10 11 10 11 9 6 7 8 8 9 11 13 13 14 16 16 17 19 21 22 25 26 27 29 31 32 31 30 27 23 21 18 16 14 12 10 10 9 9 8 6 6 7 7 8 8 7 7 7 7 6 6 4 3 2 2 2 3 3 4 4 5 6 7
2 4 5 7 10 8 5 4 6 10 11 10 11 13 13 13 14 15 16 17 13 11 13 12 9 9 7 7 8 9 11 13 11 11 12 14 18 18 18 20 22 23 25 26 28 30 31 32 31 29 26 23 21 19 17 15 13 12 12 11 10 8 7 7 8 8 8 8 9 9 9 8 7 6 5 3 2 2 1 1 1 2 3 4 5 6
2 2 2 5 5 6 2 1 1 2 6 8 9 9 10 12 14 15 15 15 12 11 14 11 8 8 7 8 8 8 11 11 10 12 14 16 18 19 19 21 22 24 25 26 27 30 31 32 31 28 26 24 22 21 19 16 14 13 13 12 10 9 8 9 9 9 10 10 11 11 10 9 7 6 5 3 3 2 2 1 1 1 2 3 5 7
3 1 2 4 4 4 1 1 1 4 4 2 5 7 11 12 13 14 14 13 11 11 12 10 9 10 7 8 8 8 11 13 13 15 16 15 17 19 21 23 24 25 26 27 28 31 32 31 29 29 28 25 23 22 19 17 15 14 13 12 11 10 10 11 11 11 12 12 12 12 10 9 7 6 5 4 4 4 3 2 1 2 4 6 8 10
6 5 2 2 5 3 4 1 4 6 4 4 7 10 14 13 12 11 10 12 12 11 10 9 11 13 7 8 8 7 9 11 14 17 17 17 20 21 22 24 25 25 27 28 29 31 32 29 27 28 29 26 24 23 20 18 16 15 14 13 12 11 12 13 13 14 14 14 13 12 10 8 7 6 6 5 4 4 2 1 3 5 8 10 12 13
7 8 5 3 3 2 4 2 4 4 6 10 8 10 15 15 14 12 11 14 15 13 11 11 13 11 6 8 9 9 10 14 18 19 19 19 21 22 22 24 25 25 26 26 26 29 30 26 25 28 28 26 25 23 20 18 16 15 15 14 13 14 14 14 15 15 15 14 13 12 10 8 7 7 6 5 3 2 2 4 6 8 10 12 14 15
8 8 6 5 3 0 3 2 3 7 10 7 2 7 13 14 14 14 15 17 17 15 15 14 13 10 7 11 15 17 19 21 21 20 19 18 20 20 20 22 23 23 25 24 25 27 26 23 24 28 29 26 24 22 20 19 17 16 16 15 15 15 14 15 16 16 15 14 12 11 9 8 8 7 5 3 2 3 5 7 9 11 12 14 15 16
8 7 5 4 4 2 1 2 7 6 5 3 1 3 7 9 10 11 13 15 14 13 12 13 15 13 12 14 17 20 22 21 19 21 21 18 16 17 17 18 19 19 21 22 23 24 22 20 22 26 27 25 24 22 20 19 18 17 17 17 16 15 16 16 16 16 14 13 12 11 10 9 7 6 4 2 3 5 7 9 11 12 13 14 15 16
7 8 5 5 5 5 4 6 5 7 8 6 6 4 6 8 8 9 10 12 10 11 12 14 15 15 13 14 15 15 16 14 11 18 26 24 18 18 18 16 16 17 18 19 19 19 18 18 21 23 25 25 24 22 21 19 19 18 18 17 16 16 17 17 16 15 14 13 12 11 10 8 6 5 4 4 5 7 9 10 12 13 14 15 16 18
2 5 6 7 6 6 6 5 4 5 11 14 10 6 9 11 10 9 6 8 8 15 20 17 14 14 11 10 12 13 13 8 5 14 26 28 23 23 23 22 20 19 18 18 18 18 19 19 20 22 23 24 23 21 21 20 19 19 18 17 17 18 18 18 16 15 14 13 12 11 9 8 6 5 5 6 7 9 10 11 13 14 16 17 19 21
1 0 4 5 4 6 7 6 6 8 12 13 7 6 12 17 13 11 4 11 10 15 23 19 14 14 12 13 17 15 10 6 6 13 22 24 24 26 26 25 23 21 21 21 20 20 20 20 20 20 21 22 21 21 20 20 19 19 18 18 19 19 18 18 16 15 15 13 12 10 9 7 6 5 6 7 8 10 11 13 14 16 18 20 22 23
3 0 2 5 5 6 7 6 6 6 9 7 6 9 18 24 18 11 6 14 6 14 23 23 18 18 18 20 21 13 8 10 11 14 17 18 20 24 25 23 24 24 24 24 23 22 21 19 19 19 19 20 21 20 21 21 20 20 19 20 20 19 18 18 17 16 15 13 12 10 8 7 6 6 7 8 10 11 13 15 17 19 21 22 24 25
4 2 4 6 7 6 7 7 6 5 6 6 8 15 25 25 14 8 11 9 6 18 24 26 24 25 25 25 23 16 15 18 15 11 12 14 16 19 20 20 21 21 21 21 21 21 20 19 18 18 18 20 21 21 22 22 21 21 21 21 20 19 19 18 17 16 14 12 10 8 7 6 6 7 8 9 11 13 15 17 19 21 22 23 25 26
5 4 4 6 7 6 5 4 4 6 7 7 8 15 24 18 5 8 7 3 8 15 18 20 24 26 24 24 26 23 18 15 12 9 12 14 14 15 15 14 15 16 16 17 17 17 18 18 18 18 19 20 21 21 22 21 21 21 21 20 20 19 19 18 16 14 12 10 9 7 6 6 7 8 9 11 13 14 16 18 19 21 22 23 25 26
7 6 5 5 6 5 4 5 6 9 5 16 15 6 9 7 4 8 10 7 6 11 11 13 15 16 15 18 23 22 16 14 14 14 15 14 13 12 12 10 10 11 12 13 14 14 15 16 17 18 19 20 21 21 21 21 21 21 21 20 20 19 18 16 15 13 11 9 8 7 6 7 7 9 10 12 14 15 17 18 19 21 22 23 25 25
7 7 6 5 7 7 6 8 7 4 9 26 20 8 10 8 4 10 15 10 8 10 11 11 11 10 12 14 17 19 17 16 16 16 16 15 13 12 11 10 10 10 11 11 12 13 15 16 17 18 19 20 21 21 22 22 21 21 21 20 19 18 17 15 13 12 10 9 8 7 7 7 8 10 12 13 15 16 17 19 20 21 22 23 23 24
9 8 5 4 6 7 5 7 7 6 17 25 15 11 22 19 7 10 17 14 12 12 10 10 9 7 8 10 13 16 16 15 15 15 14 14 12 11 11 11 10 11 11 11 12 13 15 15 16 18 19 21 22 22 22 22 21 20 20 20 19 18 16 14 13 11 10 8 7 7 7 8 10 11 13 14 16 17 18 19 20 20 21 21 22 23
5 6 5 3 5 6 4 5 5 6 12 14 5 8 24 23 10 10 15 15 14 11 9 8 6 4 5 8 11 14 14 14 14 13 12 12 12 12 12 12 11 11 11 12 13 13 14 15 16 18 19 20 22 22 22 22 21 20 20 19 19 17 15 14 12 10 9 8 7 7 8 10 11 12 14 15 16 18 19 19 19 19 19 20 21 22
2 5 5 3 5 7 5 5 6 6 10 11 4 8 20 21 14 13 15 14 12 10 9 8 6 4 4 6 9 12 13 12 12 13 13 13 13 14 14 13 12 12 12 13 13 13 15 16 17 18 20 20 21 22 22 21 21 21 20 19 18 17 15 13 11 10 9 8 8 9 10 11 12 14 15 16 17 17 18 18 18 18 19 20 21 23
4 7 5 3 6 6 3 3 6 9 13 12 7 8 15 18 15 12 11 10 9 9 9 8 6 5 5 5 7 10 11 12 12 12 12 13 13 13 14 13 13 14 14 14 15 15 16 17 18 19 20 20 21 22 22 21 21 21 21 19 17 16 14 12 11 10 9 9 9 10 12 13 14 14 15 16 17 17 17 17 17 18 19 20 22 24
8 8 6 4 5 3 1 1 5 5 5 10 11 11 13 16 17 15 11 9 8 8 9 9 7 6 6 7 8 9 10 11 11 10 10 12 12 12 13 13 14 14 15 15 16 17 18 18 19 19 20 21 22 22 22 22 22 21 20 18 16 15 13 12 11 10 10 11 11 12 13 14 15 16 16 17 17 17 17 17 17 18 19 20 22 23
8 6 4 5 5 6 4 6 9 5 1 7 13 13 13 14 14 13 11 9 7 6 6 6 7 7 7 8 9 9 8 9 9 9 10 10 10 10 11 12 13 14 15 16 17 18 19 20 20 21 22 23 23 23 22 22 22 21 19 18 16 14 13 12 11 11 12 12 13 14 14 15 16 17 18 18 17 16 16 16 16 18 19 20 21 23
5 5 5 6 5 4 1 8 14 10 4 5 11 12 12 12 9 7 6 6 5 5 4 4 6 8 9 9 8 7 6 6 7 8 9 9 9 10 10 11 13 14 16 17 19 20 22 23 24 25 25 25 25 25 24 23 22 20 19 17 15 14 13 12 12 12 13 14 15 15 16 17 17 18 18 18 18 17 17 16 16 17 19 20 21 23
Wind_Direction
187 182 201 209 216 216 216 222 225 233 255 204 183 201 199 181 195 127 108 256 173 166 215 215 220 232 237 231 195 187 189 194 199 205 210 211 213 213 214 217 219 222 224 226 230 231 232 230 227 226 226 225 226 227 228 230 231 230 230 235 237 238 242 245 244 245 245 247 247 247 251 255 258 260 261 261 261 259 259 261 264 264 266 267 266 268
186 204 220 204 223 228 217 228 233 244 288 266 182 188 209 186 164 61 104 203 207 147 220 221 233 247 237 248 240 192 180 195 202 204 212 214 214 216 218 221 222 224 223 219 223 227 230 231 229 228 227 226 226 227 228 230 232 232 233 236 239 240 241 244 246 248 249 251 253 254 257 260 259 260 262 265 265 264 262 261 264 267 268 266 264 265
194 219 218 205 225 250 232 222 227 251 285 299 203 173 206 189 120 58 64 162 177 163 236 200 219 252 245 239 250 224 201 203 207 211 218 217 217 219 221 225 224 222 220 218 219 223 227 232 234 233 231 229 229 229 229 231 232 232 233 235 239 241 241 243 247 250 252 254 257 258 259 259 258 259 263 266 266 266 263 260 264 269 270 267 264 261
200 218 225 218 218 237 271 212 191 213 272 298 289 168 191 171 135 130 186 162 187 174 57 2 260 259 256 241 236 232 226 219 217 221 223 222 223 221 221 226 225 220 218 219 221 225 229 233 235 235 233 232 231 231 230 230 231 233 236 238 239 242 244 244 246 249 252 253 254 254 254 252 252 254 259 264 267 266 264 262 263 266 269 271 269 267
204 208 230 233 215 214 239 207 179 182 233 266 250 213 204 173 140 90 146 142 13 332 104 4 321 281 230 225 237 228 223 223 221 218 217 220 221 220 219 220 220 218 218 221 225 230 234 235 235 234 234 232 232 233 233 233 235 238 241 242 242 243 245 246 246 247 249 248 248 248 246 244 245 249 254 261 266 268 269 268 265 265 269 274 277 276
210 209 193 199 203 205 203 205 200 179 206 256 229 224 264 166 124 106 131 126 71 268 228 132 330 286 226 209 228 218 206 214 209 203 206 211 213 213 215 214 212 211 214 221 226 231 236 238 236 233 231 231 232 233 235 237 238 241 243 243 242 242 243 245 246 247 248 247 247 248 247 246 249 254 259 262 265 268 269 269 268 270 273 275 277 274
186 148 152 196 185 190 196 210 204 176 194 248 239 234 108 113 118 132 150 140 133 216 262 129 166 264 282 234 228 194 186 206 197 200 211 212 214 216 219 221 219 217 218 223 228 229 233 238 238 236 233 232 232 233 234 235 237 239 240 241 241 241 242 243 245 247 247 247 248 249 250 252 256 262 266 267 267 266 264 263 265 269 271 272 273 269
107 122 329 231 166 171 190 211 204 180 188 242 284 312 108 120 131 153 161 172 176 139 359 345 169 244 293 282 250 152 166 207 206 215 223 218 220 223 225 228 228 228 229 230 233 233 234 238 242 243 241 239 236 234 234 235 236 237 238 239 239 240 241 243 244 246 247 248 249 249 250 254 260 265 267 266 266 266 265 263 263 263 264 266 269 269
76 151 185 170 146 170 186 236 217 181 184 243 273 314 109 133 145 158 160 177 122 89 310 263 199 231 265 258 272 122 158 217 224 220 218 214 214 213 214 220 224 227 230 232 235 237 237 238 240 241 242 242 240 239 237 237 237 238 238 239 239 240 242 244 245 246 247 247 248 249 252 256 260 262 263 264 265 267 267 264 261 260 261 265 270 273
15 155 171 156 160 176 159 1 314 194 191 205 201 40 47 82 112 148 162 140 79 90 230 222 189 189 272 244 207 159 194 221 229 226 203 193 192 192 197 207 217 222 227 231 234 236 239 238 237 238 239 240 241 240 239 238 237 237 237 238 239 241 243 245 244 244 245 246 248 250 252 255 257 259 261 262 262 260 259 260 262 266 270 273 277 280
356 67 36 85 157 161 128 53 357 336 145 142 145 86 57 47 51 44 109 100 98 250 238 221 193 162 279 259 198 185 220 212 205 192 149 155 164 175 191 203 216 224 227 229 231 234 237 238 236 234 235 236 236 237 236 236 236 235 236 237 240 242 244 244 242 242 243 245 248 249 249 251 253 254 254 253 253 254 259 270 279 284 286 286 288 290
60 71 49 58 97 155 133 75 14 9 131 123 130 122 84 31 34 21 353 65 142 240 263 307 339 97 228 261 229 192 215 195 172 170 155 145 151 166 184 198 214 226 229 227 228 230 232 234 232 228 228 228 228 230 231 231 229 227 227 229 232 236 238 240 238 238 239 239 239 239 239 240 241 243 246 248 253 261 273 286 293 297 299 300 303 304
79 92 141 70 286 206 176 100 40 357 315 145 154 137 115 105 84 77 236 195 203 238 273 305 337 275 227 255 258 243 210 170 97 130 156 154 150 159 175 191 211 221 224 223 220 223 226 225 224 220 218 217 217 218 217 213 209 207 208 211 216 220 225 227 224 224 222 216 215 218 221 224 230 237 247 260 275 289 303 312 317 322 324 322 321 319
113 340 176 123 234 212 200 139 130 222 252 213 170 148 144 148 151 202 199 197 221 264 291 290 311 260 263 269 253 252 217 169 128 115 138 148 150 158 169 184 205 210 211 213 208 208 209 207 204 202 200 199 200 199 196 195 193 194 195 194 193 191 189 187 186 187 184 182 185 192 197 201 207 210 207 336 4 1 354 350 346 341 336 330 327 323
177 251 192 159 169 192 193 178 156 163 183 212 188 151 172 174 165 187 183 181 189 203 313 299 297 193 206 252 224 204 121 139 135 129 134 140 150 159 162 172 182 188 192 192 190 188 188 185 184 183 183 182 183 182 182 181 180 178 178 174 168 163 160 158 158 161 161 162 164 165 161 151 139 122 104 81 52 24 3 351 342 335 330 327 325 322
184 222 267 305 316 190 184 230 35 121 169 230 182 126 205 207 147 141 179 180 156 110 309 244 252 212 206 244 202 142 106 121 138 146 147 147 158 165 165 168 171 175 173 172 176 176 174 175 175 175 172 171 170 168 167 165 163 162 160 157 153 151 151 150 148 148 146 144 141 136 130 122 114 103 88 63 33 4 347 337 329 325 323 320 320 320
174 214 325 331 338 5 91 327 9 135 188 206 149 179 220 172 113 114 242 346 112 144 213 186 253 278 275 273 219 139 140 157 155 166 167 166 174 176 170 169 172 173 167 166 169 168 168 169 168 165 162 160 158 156 156 154 153 153 151 151 148 146 145 143 139 137 135 132 129 124 119 114 103 90 68 33 5 343 332 325 321 319 318 317 317 317
152 125 330 326 17 343 341 341 358 69 102 121 163 209 212 62 76 119 182 356 80 203 222 168 209 248 233 256 287 134 180 207 195 194 184 175 179 179 175 174 175 174 169 167 166 164 164 163 160 157 155 154 153 152 152 151 151 150 149 147 145 142 140 137 135 134 132 128 126 122 117 113 103 87 55 3 338 328 323 318 316 314 313 312 312 313
142 123 319 339 238 290 344 8 184 279 61 136 206 238 121 132 270 174 180 197 160 198 252 230 220 229 201 202 206 185 202 210 201 199 189 180 180 175 177 181 178 178 175 170 167 164 161 159 157 156 155 154 154 154 153 153 151 150 148 144 142 140 137 136 134 132 131 127 124 121 114 109 95 59 1 333 323 319 316 314 312 310 309 310 310 311
153 148 225 300 270 229 13 52 189 212 237 127 329 3 79 161 188 180 207 203 156 180 236 258 248 252 231 211 198 198 201 195 190 192 187 188 186 179 183 187 181 181 181 175 172 168 163 162 162 160 160 160 159 158 155 152 149 146 144 141 140 139 135 133 131 128 126 122 118 114 100 80 12 339 327 322 318 314 313 310 308 306 306 308 309 312
134 134 151 270 303 163 178 216 192 189 187 181 190 153 175 200 123 132 258 213 133 163 218 225 257 262 250 231 189 178 178 176 177 181 186 191 188 185 189 192 185 183 183 180 177 175 171 170 169 167 166 163 160 157 152 149 147 144 143 141 139 137 134 131 128 126 126 121 120 110 28 333 328 324 317 314 309 307 305 301 299 300 302 306 310 315
121 131 136 141 186 177 204 264 171 158 175 179 190 191 186 174 131 131 262 252 123 159 193 180 238 270 264 307 45 123 123 108 137 159 175 183 183 186 192 194 192 188 185 183 182 181 178 176 174 170 166 161 157 154 151 150 149 147 145 143 140 138 136 135 131 130 133 133 142 291 318 317 318 312 305 301 296 295 295 292 294 298 301 308 315 323
101 103 111 124 181 190 222 302 90 111 144 145 237 226 170 166 166 171 211 233 208 200 134 137 229 276 267 318 21 66 101 100 122 141 154 166 174 182 187 190 192 190 186 186 185 184 183 179 176 171 165 161 158 156 155 155 153 152 150 147 146 145 143 143 141 142 151 190 270 301 309 307 304 296 290 286 283 286 288 289 295 301 309 320 328 337
115 104 108 110 63 1 336 17 69 1 121 158 244 221 175 192 198 187 188 184 179 182 144 139 242 269 277 328 19 24 104 137 158 151 149 159 172 180 183 185 187 188 187 187 187 187 184 181 176 171 168 165 163 163 162 160 159 158 158 155 155 155 155 157 165 185 223 272 293 302 302 296 289 282 277 274 275 283 288 294 306 317 329 341 347 351
170 142 120 121 112 48 334 281 274 248 201 204 228 206 195 185 156 150 170 118 212 211 171 163 228 252 275 316 329 258 202 197 212 188 170 169 176 181 180 181 184 186 188 189 189 188 185 182 178 174 172 171 170 169 167 166 167 167 167 166 166 168 174 185 204 225 254 281 292 293 287 280 273 267 265 267 275 289 300 315 333 344 350 354 356 354
170 177 145 146 173 185 199 210 203 191 178 221 246 202 198 174 148 163 188 169 236 225 174 175 229 250 280 307 275 229 200 195 199 191 183 176 180 185 182 183 186 187 189 191 190 189 186 183 180 178 177 176 175 174 174 174 176 177 177 178 180 185 192 206 224 243 267 277 279 278 273 266 263 260 266 277 289 309 330 342 347 351 351 352 353 351
146 210 178 182 199 200 206 207 174 140 145 191 210 202 200 196 187 185 177 191 213 205 192 212 220 239 262 255 229 225 210 207 192 180 185 181 179 187 187 188 191 191 192 192 191 189 187 185 184 182 181 180 180 181 181 183 185 187 189 190 193 201 206 219 236 250 263 269 272 274 270 263 262 262 265 271 281 313 332 338 339 342 345 348 351 350
103 212 199 201 210 210 209 204 177 161 178 199 202 203 203 198 193 189 196 213 203 182 229 234 212 227 239 197 205 230 217 211 201 192 196 188 180 186 189 190 192 191 191 192 191 191 189 188 187 186 185 185 186 187 188 191 195 196 199 203 206 211 217 231 247 257 264 269 271 268 258 246 239 234 232 236 252 294 316 325 331 337 343 347 349 351
130 200 203 203 217 225 210 195 182 177 193 205 202 205 205 195 189 194 211 223 204 185 232 232 205 219 230 193 207 221 202 203 208 202 200 189 183 187 190 191 193 192 192 193 194 194 193 192 190 189 189 190 191 194 196 200 204 206 208 212 213 217 227 243 257 263 263 263 255 243 233 225 219 216 214 220 244 278 303 320 330 340 345 348 351 353
130 201 201 189 217 234 200 177 190 189 199 210 207 206 200 191 194 202 215 225 217 213 235 237 220 230 229 198 213 217 202 203 200 189 190 189 188 189 191 195 197 196 198 198 198 198 197 195 194 192 193 196 198 202 205 208 212 214 214 217 219 222 234 250 258 256 250 243 234 226 220 213 206 202 204 210 224 240 270 299 326 345 344 346 348 348
142 217 177 151 211 240 197 106 294 196 197 210 213 205 187 186 200 209 219 227 224 229 245 252 262 265 232 198 211 208 184 177 170 177 190 194 193 191 192 199 202 202 204 205 203 202 201 198 196 196 198 202 204 207 211 214 218 219 219 222 223 223 237 251 252 245 236 230 225 217 209 202 197 197 200 203 204 205 207 215 237 318 331 339 339 338
158 198 40 102 188 239 302 52 87 51 35 274 243 209 184 184 198 207 216 220 210 218 238 247 256 258 231 190 202 192 168 167 176 185 190 194 197 199 200 204 207 208 209 209 207 206 204 202 201 201 203 207 210 211 215 220 223 223 224 225 224 228 243 249 244 236 229 222 215 208 202 199 199 201 202 199 195 194 196 206 251 321 331 334 335 336
150 138 86 129 184 243 325 331 127 76 37 267 242 209 192 193 200 204 218 223 211 208 218 224 235 242 218 177 196 197 173 179 188 190 194 202 204 207 209 209 210 212 212 211 211 210 208 207 207 207 208 212 214 216 220 224 225 226 226 225 226 234 242 239 231 225 218 212 206 203 201 201 201 199 196 191 189 194 208 283 321 332 335 336 337 337
164 155 153 160 181 274 321 335 110 125 226 239 223 194 194 198 195 195 214 221 213 209 213 221 233 238 206 177 197 202 192 196 202 205 213 217 211 208 212 214 215 218 217 215 217 217 215 212 212 211 212 215 218 221 224 226 226 226 225 225 229 235 233 224 217 212 207 204 202 200 199 198 195 192 189 188 195 235 305 328 334 336 336 336 336 335
173 168 155 157 173 331 355 7 162 201 231 246 204 180 197 201 194 199 217 221 213 210 217 229 240 235 201 190 198 205 209 210 210 215 220 220 215 213 216 219 220 223 224 222 223 223 222 221 220 216 215 218 222 225 226 225 225 225 223 225 229 228 219 210 206 203 201 201 200 198 197 194 191 190 192 203 254 309 323 328 332 334 333 333 333 332
170 173 157 148 153 130 65 198 208 238 276 297 308 209 194 194 193 202 229 237 222 209 213 227 239 237 218 206 204 212 221 220 217 221 222 219 220 221 223 225 221 221 226 228 228 229 232 235 231 224 223 225 226 227 227 226 227 225 222 222 223 216 207 202 200 200 200 200 198 196 194 192 192 197 210 255 293 311 321 324 326 327 327 329 329 329
169 171 163 161 173 180 191 202 231 306 311 265 241 210 173 179 180 187 229 246 224 203 208 219 233 235 225 217 213 208 211 213 219 229 226 223 226 230 234 236 229 224 227 228 229 232 235 237 234 229 228 229 227 228 229 228 225 222 219 218 213 205 200 199 199 200 200 198 196 194 194 195 202 218 243 278 296 307 316 319 322 324 324 326 327 328
169 176 175 181 190 184 187 205 219 257 257 244 229 189 174 180 166 156 206 252 227 203 207 215 228 231 218 204 196 180 178 190 226 233 226 224 227 233 238 239 236 234 234 234 235 236 235 234 232 229 229 228 228 229 227 224 219 216 215 212 205 200 200 199 200 200 198 196 195 196 199 207 220 239 261 286 300 310 317 320 323 325 326 328 329 330
119 174 171 177 187 179 189 213 206 214 244 245 219 177 178 173 148 118 177 255 243 200 204 214 224 226 212 186 176 162 152 181 232 236 228 225 227 232 237 238 237 240 241 241 243 242 239 238 234 230 229 228 227 225 219 215 213 212 211 206 201 200 200 199 199 197 195 195 198 202 209 220 236 258 281 301 310 316 321 324 326 329 330 331 331 331
171 141 159 182 203 191 190 214 219 230 252 232 175 173 173 161 138 115 220 257 232 166 194 214 216 219 215 191 176 167 173 206 230 239 229 222 226 231 236 238 238 241 242 240 240 240 239 239 236 231 228 223 220 217 213 210 210 208 205 202 200 199 199 198 197 196 196 199 203 210 221 234 256 282 300 312 318 322 326 328 329 331 331 331 331 330
177 192 186 197 213 200 193 218 242 253 244 209 170 167 160 148 140 171 224 250 141 152 193 214 212 216 215 192 181 190 207 215 228 232 212 207 215 224 230 233 233 235 237 236 237 237 236 235 232 227 221 215 212 210 208 207 206 202 200 199 199 198 197 197 197 197 199 204 210 220 236 256 281 299 309 318 323 326 329 329 329 329 328 328 327 326
177 188 195 201 210 207 202 217 252 262 229 170 148 162 157 148 178 214 193 125 134 166 198 210 209 216 214 195 194 205 209 212 220 210 194 197 205 214 225 228 224 224 227 225 227 229 228 225 221 216 211 208 206 205 205 203 201 200 199 198 197 196 196 197 198 201 205 212 221 236 255 276 294 307 314 321 324 326 327 326 326 325 325 324 324 323
171 170 189 202 198 202 209 195 224 265 207 135 124 149 175 171 212 182 146 117 146 172 187 197 204 213 209 198 202 208 208 208 209 202 195 197 204 214 224 223 216 216 217 215 215 216 216 215 212 208 207 205 203 203 202 200 200 199 198 198 197 197 198 199 201 206 212 221 235 252 269 284 300 310 316 320 322 323 323 323 323 323 323 322 322 322
177 173 186 204 191 186 205 203 211 265 156 149 149 176 199 201 205 166 156 147 142 151 165 177 183 193 199 198 198 200 203 204 201 200 201 202 207 215 216 212 207 208 208 207 209 210 210 211 209 206 204 201 200 199 198 197 199 199 198 197 198 199 200 203 207 213 220 230 244 259 275 291 303 311 316 318 319 319 319 319 320 321 321 322 321 321
199 186 164 180 191 187 210 217 202 167 165 170 176 187 185 190 198 170 166 157 146 147 152 157 162 171 185 194 195 194 197 197 196 199 202 203 206 208 207 203 201 204 206 207 209 210 209 209 208 205 200 197 195 196 195 195 196 198 199 199 200 202 205 208 213 220 227 238 251 266 282 296 305 310 313 314 314 315 317 318 319 320 321 321 320 321
206 184 141 133 195 210 234 216 177 156 173 180 190 186 182 183 175 162 162 149 141 146 147 149 160 172 182 198 201 195 193 193 192 192 195 199 202 200 198 198 198 202 209 212 212 212 208 205 204 202 200 198 196 196 196 196 195 197 200 202 203 206 210 213 220 227 235 246 261 276 289 299 303 306 309 310 312 314 316 317 319 319 319 320 321 323
260 191 156 138 180 199 225 202 163 173 193 190 177 175 177 174 160 148 147 142 140 148 158 164 173 183 187 198 199 194 194 194 191 190 191 193 194 194 195 199 204 208 214 217 218 217 211 207 205 203 202 202 201 199 199 198 196 198 202 205 207 210 214 218 225 233 242 256 272 284 293 298 301 304 307 309 311 313 314 315 316 316 318 320 323 326
197 178 174 186 185 183 205 188 162 178 194 194 187 175 174 178 177 165 156 158 158 155 161 169 178 186 191 193 189 188 189 187 185 188 188 188 193 199 202 206 211 213 216 218 219 217 215 213 212 209 207 207 206 204 201 199 199 201 205 208 211 214 219 225 231 240 253 267 280 288 294 298 302 304 306 307 307 308 309 309 312 315 319 323 325 327
142 158 173 180 186 200 255 107 114 121 181 204 204 194 188 194 201 202 198 190 175 164 161 159 158 170 189 194 185 177 175 178 181 186 192 195 200 205 207 212 215 218 220 220 219 218 217 217 216 214 214 213 211 209 205 202 203 205 208 211 216 220 227 234 241 253 267 276 285 292 296 299 301 302 302 303 303 304 305 308 312 316 320 323 325 327
140 162 175 158 185 226 236 180 161 140 170 215 206 202 203 204 203 203 199 188 174 170 168 163 163 171 180 183 178 174 176 182 188 197 205 209 211 211 214 217 218 221 222 222 221 220 219 218 219 218 217 217 214 211 208 207 208 210 213 217 222 228 235 244 255 267 277 283 289 294 296 297 298 298 298 298 298 299 302 307 313 316 319 321 324 326
169 180 174 162 183 222 195 173 181 181 166 187 196 202 206 203 194 180 162 150 150 154 154 163 174 177 181 182 182 186 193 195 200 208 214 219 222 223 225 228 228 228 227 225 224 223 221 219 219 219 218 218 216 213 211 211 212 215 218 222 228 235 244 254 265 274 282 288 290 291 292 293 293 293 293 294 295 297 300 305 311 315 317 320 324 326